CW2927 Weather Reports


Display with metric or nautical units.
time (UTC)temp
F
wind
direction
speed
MPH
gust
MPH
rain 1hr
in
rain 24hr
in
rain mn
in
humidity
%
barometer
mb
20180924002204 46 71 1.0 5.0 0.00 0.00 0.00 75 1029.6
20180924000704 46 72 2.0 7.0 0.00 0.00 0.00 75 1029.4
20180924000205 46 74 0.0 10.0 0.00 0.00 0.00 74 1029.4
20180923234705 46 73 2.0 8.0 0.00 0.00 0.00 75 1028.9
20180923234204 46 109 2.0 10.0 0.00 0.00 0.00 75 1028.8
20180923232704 46 86 2.0 8.0 0.00 0.00 0.00 75 1028.5
20180923232204 46 77 4.0 10.0 0.00 0.00 0.00 74 1028.3
20180923230704 47 46 2.0 5.0 0.00 0.00 0.00 72 1028.2
20180923230206 47 352 2.0 9.0 0.00 0.00 0.00 71 1028.2
20180923224704 47 36 3.0 6.0 0.00 0.00 0.00 69 1027.8
20180923224205 48 54 0.0 6.0 0.00 0.00 0.00 68 1027.6
20180923222705 48 72 2.0 8.0 0.00 0.00 0.00 67 1027.3
20180923222205 48 63 3.0 13.0 0.00 0.00 0.00 68 1027.2
20180923220704 49 70 2.0 10.0 0.00 0.00 0.00 70 1026.9
20180923220204 49 42 1.0 10.0 0.00 0.00 0.00 69 1026.7
20180923214704 50 53 3.0 9.0 0.00 0.00 0.00 69 1026.3
20180923214204 50 45 3.0 9.0 0.00 0.00 0.00 69 1026.2
20180923212704 50 5 2.0 10.0 0.00 0.00 0.00 67 1026.0
20180923212204 51 64 0.0 12.0 0.00 0.00 0.00 67 1026.0
20180923210704 52 55 2.0 7.0 0.00 0.00 0.00 68 1025.7
20180923210204 52 77 2.0 7.0 0.00 0.00 0.00 69 1025.5
20180923204704 52 24 2.0 5.0 0.00 0.00 0.00 69 1025.4
20180923204205 52 41 3.0 7.0 0.00 0.00 0.00 69 1025.5
20180923202705 53 6 2.0 6.0 0.00 0.00 0.00 68 1025.2
20180923202204 54 4 2.0 10.0 0.00 0.00 0.00 68 1025.3
20180923200704 55 321 1.0 5.0 0.00 0.00 0.00 69 1024.9
20180923200204 55 65 3.0 10.0 0.00 0.00 0.00 68 1024.7
20180923194704 56 45 2.0 12.0 0.00 0.00 0.00 69 1024.5
20180923194204 56 28 2.0 8.0 0.00 0.00 0.00 69 1024.5
20180923192704 56 60 1.0 9.0 0.00 0.00 0.00 70 1024.3
20180923192204 56 67 1.0 8.0 0.00 0.00 0.00 71 1024.1
20180923190704 56 358 1.0 6.0 0.00 0.00 0.00 70 1023.9
20180923190204 57 9 2.0 9.0 0.00 0.00 0.00 70 1023.9
20180923184704 59 329 2.0 6.0 0.00 0.00 0.00 65 1023.7
20180923184204 59 4 2.0 12.0 0.00 0.00 0.00 65 1023.7
20180923182704 58 334 0.0 1.0 0.00 0.00 0.00 66 1023.6
20180923182204 59 334 0.0 8.0 0.00 0.00 0.00 66 1023.7
20180923180704 60 340 1.0 5.0 0.00 0.00 0.00 66 1023.7
20180923180205 59 21 1.0 10.0 0.00 0.00 0.00 67 1023.7
20180923174704 59 324 2.0 10.0 0.00 0.00 0.00 68 1023.7
20180923174204 59 330 3.0 8.0 0.00 0.00 0.00 67 1023.7
20180923172704 60 332 3.0 9.0 0.00 0.00 0.00 63 1023.8
20180923172204 61 330 5.0 12.0 0.00 0.00 0.00 64 1023.7
20180923170704 60 333 5.0 9.0 0.00 0.00 0.00 67 1023.8
20180923170205 60 323 5.0 8.0 0.00 0.00 0.00 67 1023.9
20180923164704 60 319 3.0 9.0 0.00 0.00 0.00 66 1023.9
20180923164205 59 318 1.0 7.0 0.00 0.00 0.00 67 1023.8
20180923162704 58 336 0.0 6.0 0.00 0.00 0.00 66 1023.8
20180923162204 59 336 3.0 8.0 0.00 0.00 0.00 67 1023.9
20180923160704 59 331 1.0 10.0 0.00 0.00 0.00 66 1024.0
20180923160204 59 331 2.0 12.0 0.00 0.00 0.00 68 1024.0
20180923154704 57 333 3.0 7.0 0.00 0.00 0.00 71 1024.0
20180923154204 57 321 3.0 9.0 0.00 0.00 0.00 70 1023.9
20180923152704 57 320 3.0 6.0 0.00 0.00 0.00 72 1023.7
20180923152204 57 314 3.0 9.0 0.00 0.00 0.00 72 1023.8
20180923150704 56 315 3.0 8.0 0.00 0.00 0.00 74 1024.0
20180923150204 56 315 1.0 9.0 0.00 0.00 0.00 75 1024.0
20180923144704 55 336 1.0 6.0 0.00 0.00 0.00 80 1023.9
20180923144204 55 300 1.0 12.0 0.00 0.00 0.00 81 1023.8
20180923142704 53 271 0.0 3.0 0.00 0.00 0.00 84 1023.9
20180923142204 53 266 0.0 6.0 0.00 0.00 0.00 85 1023.8
20180923140704 52 261 0.0 6.0 0.00 0.00 0.00 87 1023.7
20180923140204 52 261 0.0 7.0 0.00 0.00 0.00 87 1023.5
20180923134704 51 232 1.0 9.0 0.00 0.00 0.00 90 1023.5
20180923134204 51 217 2.0 7.0 0.00 0.00 0.00 91 1023.5
20180923132704 49 229 0.0 3.0 0.00 0.00 0.00 91 1023.4
20180923132204 49 230 1.0 7.0 0.00 0.00 0.00 91 1023.4
20180923130704 49 218 0.0 6.0 0.00 0.00 0.00 93 1023.3
20180923130204 48 207 2.0 8.0 0.00 0.00 0.00 93 1023.3
20180923124704 48 237 1.0 6.0 0.00 0.00 0.00 94 1023.4
20180923124204 48 209 2.0 9.0 0.00 0.00 0.00 94 1023.2
20180923122704 47 245 1.0 5.0 0.00 0.00 0.00 95 1023.1
20180923122204 46 225 1.0 9.0 0.00 0.00 0.00 95 1023.1
20180923120704 45 231 0.0 3.0 0.00 0.00 0.00 95 1023.3
20180923120204 45 230 1.0 5.0 0.00 0.00 0.00 95 1023.2
20180923114704 44 214 1.0 6.0 0.00 0.00 0.00 95 1023.1
20180923114204 44 220 2.0 6.0 0.00 0.00 0.00 95 1022.9
20180923112704 42 218 0.0 3.0 0.00 0.00 0.00 95 1023.1
20180923112204 42 218 1.0 3.0 0.00 0.00 0.00 95 1023.0
20180923110703 41 217 2.0 3.0 0.00 0.00 0.00 95 1022.8
20180923110203 41 216 1.0 3.0 0.00 0.00 0.00 94 1022.8
20180923104704 40 218 0.0 0.0 0.00 0.00 0.00 94 1022.9
20180923104204 40 219 0.0 0.0 0.00 0.00 0.00 94 1022.8
20180923102704 40 219 0.0 0.0 0.00 0.00 0.00 94 1022.8
20180923102204 40 219 0.0 0.0 0.00 0.00 0.00 94 1022.8
20180923100704 40 219 0.0 0.0 0.00 0.00 0.00 94 1022.7
20180923100204 40 219 0.0 0.0 0.00 0.00 0.00 94 1022.8
20180923094704 41 219 0.0 0.0 0.00 0.00 0.00 94 1022.9
20180923094204 41 219 0.0 0.0 0.00 0.00 0.00 94 1022.9
20180923092704 41 219 0.0 0.0 0.00 0.00 0.00 93 1022.8
20180923090704 41 219 0.0 0.0 0.00 0.00 0.00 93 1022.9
20180923090204 41 219 0.0 1.0 0.00 0.00 0.00 93 1022.9
20180923084703 41 219 0.0 2.0 0.00 0.00 0.00 93 1022.8
20180923084204 41 219 0.0 0.0 0.00 0.00 0.00 93 1022.7
20180923082703 41 219 0.0 0.0 0.00 0.00 0.00 93 1022.7
20180923082204 41 219 0.0 2.0 0.00 0.00 0.00 93 1022.7
20180923080704 42 219 0.0 0.0 0.00 0.00 0.00 93 1022.8
20180923080204 42 219 0.0 3.0 0.00 0.00 0.00 93 1022.6
20180923074704 42 219 1.0 3.0 0.00 0.00 0.00 93 1022.6
20180923074204 42 218 1.0 3.0 0.00 0.00 0.00 93 1022.6
20180923072704 42 213 2.0 3.0 0.00 0.00 0.00 93 1022.6
20180923072204 42 218 2.0 5.0 0.00 0.00 0.00 93 1022.5
20180923070703 42 210 2.0 3.0 0.00 0.00 0.00 93 1022.3
20180923070204 42 210 1.0 3.0 0.00 0.00 0.00 93 1022.3
20180923064704 41 210 1.0 3.0 0.00 0.00 0.00 93 1022.5
20180923064204 41 210 1.0 3.0 0.00 0.00 0.00 93 1022.6
20180923062703 41 210 0.0 0.0 0.00 0.00 0.00 93 1022.2
20180923062204 41 210 0.0 0.0 0.00 0.00 0.00 92 1022.2
20180923060704 42 210 0.0 0.0 0.00 0.00 0.00 93 1022.2
20180923060204 42 210 0.0 0.0 0.00 0.00 0.00 93 1022.3
20180923054706 42 210 0.0 0.0 0.00 0.00 0.00 92 1022.3
20180923054204 42 210 0.0 0.0 0.00 0.00 0.00 92 1022.3
20180923052703 42 210 0.0 0.0 0.00 0.00 0.00 92 1022.4
20180923052203 42 210 0.0 0.0 0.00 0.00 0.00 92 1022.5
20180923050704 42 210 0.0 0.0 0.00 0.00 0.00 91 1022.4
20180923050203 42 210 0.0 0.0 0.00 0.00 0.00 91 1022.3
20180923044710 42 210 0.0 0.0 0.00 0.00 0.00 91 1022.5
20180923044210 42 210 0.0 0.0 0.00 0.00 0.00 91 1022.6
20180923042710 43 210 0.0 0.0 0.00 0.00 0.00 91 1022.8
20180923042209 43 210 0.0 0.0 0.00 0.00 0.00 90 1022.7
20180923040710 43 210 0.0 0.0 0.00 0.01 0.00 90 1022.7
20180923040210 43 210 0.0 0.0 0.00 0.01 0.00 90 1022.8
20180923034710 43 210 0.0 0.0 0.00 0.01 0.01 89 1022.8
20180923034210 43 210 0.0 2.0 0.00 0.01 0.01 89 1022.8
20180923032710 44 210 0.0 0.0 0.00 0.01 0.01 89 1022.6
20180923032210 44 210 0.0 0.0 0.00 0.01 0.01 89 1022.8
20180923030710 44 210 0.0 0.0 0.00 0.01 0.01 88 1022.8
20180923030210 44 210 0.0 0.0 0.00 0.01 0.01 88 1022.6
20180923024710 45 210 0.0 0.0 0.00 0.01 0.01 86 1022.6
20180923024210 45 210 0.0 0.0 0.00 0.01 0.01 86 1022.5
20180923022710 45 210 0.0 0.0 0.00 0.01 0.01 86 1022.5
20180923022210 46 210 0.0 1.0 0.00 0.01 0.01 85 1022.5
20180923020710 46 210 0.0 3.0 0.00 0.01 0.01 85 1022.4
20180923020210 46 209 1.0 3.0 0.00 0.01 0.01 85 1022.4
20180923014710 46 211 1.0 3.0 0.00 0.01 0.01 84 1022.3
20180923014210 46 211 1.0 5.0 0.00 0.01 0.01 84 1022.3
20180923012710 46 246 0.0 2.0 0.00 0.10 0.01 82 1022.3
20180923012210 47 246 0.0 1.0 0.00 0.16 0.01 81 1022.3
20180923010710 47 246 0.0 0.0 0.00 0.23 0.01 80 1022.4
20180923010210 47 246 0.0 3.0 0.00 0.26 0.01 80 1022.3
20180923004710 48 315 0.0 0.0 0.00 0.31 0.01 79 1022.1
20180923004210 48 315 0.0 0.0 0.00 0.31 0.01 79 1022.1
20180923002710 49 315 0.0 0.0 0.00 0.32 0.01 77 1022.2